星链-4008 (STARLINK-4008 )

导读

STARLINK-4008是美国SpaceX公司星链计划中的一颗卫星,于2022年5月14日发射入轨。它属于星链星座组网卫星,旨在为全球提供高速低延迟互联网服务,尤其覆盖偏远地区与网络基础设施薄弱区域,依托低轨轨道布局,服务全球海事、航空以及地面用户的互联需求,是星链大规模组网建设中的组成单元。

Basic Information
目录编号:
52622
目录名称:
STARLINK-4008
国际标识:
2022-052AA
轨道中心:
EARTH
卫星名称:
星链-4008
卫星全名:
星链-4008 (STARLINK-4008 )
卫星状态:
在轨 (已飞行1493 天)
发射日期:
2022-05-14 UTC
国别 :
美国 (US)
星等 :
--
Orbit Information
数据来源 国际轨道数据 AOE轨道数据
星历时间 2026-06-15T03:25:23+0800
10小时前
查看轨道信息
2026-06-15T02:00:00+0800
11小时前
查看轨道信息
半长轴 6917.907km 6917.908km
偏心率 0.0001181 0.000126
轨道倾角 53.159° 53.158°
近地点辐角 82.628° 81.749°
升交点赤经 208.052° 208.319°
平近点角 277.485° 316.128°
近地点 538.952km 538.899km
远地点 540.588km 540.643km
周期 95.438分钟 95.438分钟
每日圈数 15.088314 15.088311
Detailed Information
固有亮度:
5
最大亮度:
2.5
卫星平台:
Starlink v1.5
覆盖范围:
全球
运营商:
太空探索技术公司
运营商所在国:
美国
制造商(研发单位):
太空探索技术公司
制造商所在国:
美国
使用方式:
暂无
Satellite Introduction
星链(Starlink)计划是由太空探索技术公司(SpaceX)提出的一个巨型低轨卫星互联网星座项目,计划在2019年至2024年间在太空搭建由约1.2万颗卫星组成的“星链”网络,其中1584颗将部署在地球上空550千米处的近地轨道,并从2020年开始工作。该卫星仍在工作。
2D Orbit Map
3D Orbit Map
Orbit Altitude Analysis Chart
Orbit Inclination Analysis Chart
Orbit Comprehensive Analysis Chart
View Comprehensive Chart